1484139600.73,27512,6.06,72350.5,-9.83,-45.67,-46.07,0,*54
1484139601.97,27513,6.13,72348.5,-9.87,-45.13,-45.61,0,*51
1484139603.18,27514,6.13,72352.0,-9.85,-45.61,-45.95,0,*5A
1484139604.39,27515,6.06,72350.5,-9.85,-45.61,-46.01,0,*55
1484139605.62,27516,6.06,72350.8,-9.85,-45.41,-45.81,0,*5F
1484139606.85,27517,6.13,72350.3,-9.85,-45.41,-45.81,0,*5E
1484139608.08,27518,6.06,72346.0,-9.85,-45.33,-45.81,0,*54
1484139609.36,27519,6.06,72346.5,-9.83,-46.15,-46.61,0,*59
1484139610.61,27520,6.13,72348.8,-9.87,-45.81,-46.21,0,*5D
1484139611.84,27521,6.06,72348.0,-9.83,-45.53,-45.95,0,*5B
1484139613.06,27522,6.13,72350.3,-9.85,-45.53,-46.01,0,*50
1484139614.31,27523,6.13,72350.5,-9.85,-45.81,-46.15,0,*5B
1484139615.53,27524,6.13,72348.8,-9.85,-45.61,-46.01,0,*57
1484139616.75,27525,6.06,72344.8,-9.85,-45.33,-45.81,0,*5A
1484139617.99,27526,6.06,72344.3,-9.85,-44.93,-45.41,0,*5E
1484139619.25,27527,6.13,72350.5,-9.87,-44.53,-44.93,0,*5F
1484139620.52,27528,6.13,72346.0,-9.83,-45.73,-46.15,0,*5B
1484139621.76,27529,6.06,72346.8,-9.83,-45.53,-45.95,0,*53
1484139623.03,27530,6.13,72348.0,-9.87,-45.73,-46.15,0,*56
1484139624.26,27531,6.06,72344.3,-9.85,-45.33,-45.81,0,*5F
1484139625.49,27532,6.06,72346.8,-9.85,-45.41,-45.81,0,*59
1484139626.73,27533,6.13,72348.8,-9.85,-45.53,-46.15,0,*55
1484139627.96,27534,6.13,72346.5,-9.83,-45.53,-45.87,0,*5C
1484139629.17,27535,6.13,72344.0,-9.85,-45.53,-45.95,0,*58
1484139630.39,27536,6.13,72344.8,-9.85,-45.53,-45.95,0,*5B
1484139631.64,27537,6.13,72348.5,-9.87,-45.41,-45.81,0,*5E
1484139632.89,27538,6.13,72350.0,-9.87,-45.81,-46.21,0,*54
1484139634.12,27539,6.13,72350.5,-9.85,-45.81,-46.35,0,*52
1484139635.34,27540,6.13,72346.8,-9.85,-45.81,-46.35,0,*5C
1484139636.57,27541,6.13,72348.8,-9.85,-45.73,-46.21,0,*55
1484139637.78,27542,6.06,72346.5,-9.85,-46.01,-46.55,0,*53
1484139639.02,27543,6.13,72348.0,-9.85,-46.15,-46.55,0,*57
1484139640.26,27544,6.06,72346.0,-9.85,-46.15,-46.55,0,*50
1484139641.49,27545,6.13,72344.8,-9.87,-45.95,-46.35,0,*5E
1484139642.72,27546,6.13,72348.0,-9.87,-45.95,-46.35,0,*5D
1484139643.97,27547,6.13,72348.8,-9.87,-45.95,-46.41,0,*5F
1484139645.2,27548,6.13,72348.0,-9.89,-45.47,-45.87,0,*58
1484139646.43,27549,6.13,72346.8,-9.87,-45.95,-46.35,0,*52
1484139647.67,27550,6.13,72348.3,-9.87,-45.61,-46.21,0,*54
1484139648.91,27551,6.06,72346.5,-9.89,-45.47,-46.01,0,*5D
1484139650.16,27552,6.13,72346.0,-9.87,-46.21,-46.69,0,*5D
1484139651.4,27553,6.13,72346.5,-9.89,-46.01,-46.27,0,*5A
1484139652.6,27554,6.13,72350.3,-9.89,-46.75,-47.31,0,*58
1484139653.83,27555,6.13,72350.8,-9.89,-46.41,-46.97,0,*53
1484139655.09,27556,6.13,72348.0,-9.89,-46.07,-46.49,0,*51
1484139656.34,27557,6.06,72346.8,-9.91,-45.81,-46.21,0,*5A
1484139657.61,27558,6.13,72352.3,-9.89,-46.27,-46.89,0,*51
1484139658.86,27559,6.13,72350.5,-9.91,-46.61,-46.97,0,*54
1484139660.12,27560,6.13,72348.0,-9.91,-46.61,-47.09,0,*58
1484139661.38,27561,6.13,72352.3,-9.95,-46.49,-46.97,0,*51
1484139662.6,27562,6.13,72344.0,-9.95,-46.75,-47.17,0,*54
1484139663.83,27563,6.13,72346.5,-9.97,-46.69,-47.17,0,*5A
1484139665.11,27564,6.13,72344.0,-9.95,-46.07,-46.69,0,*5F
1484139666.32,27565,6.13,72344.0,-9.97,-45.95,-46.35,0,*5D
1484139667.56,27566,6.13,72342.5,-9.97,-45.87,-46.27,0,*5E
1484139668.79,27567,6.13,72340.8,-9.97,-46.49,-46.97,0,*55
1484139670.03,27568,6.13,72342.8,-9.97,-45.67,-46.27,0,*5E
1484139671.26,27569,6.13,72346.5,-9.97,-45.47,-45.87,0,*54
1484139672.5,27570,6.13,72342.5,-9.99,-46.01,-46.55,0,*5F
1484139673.74,27571,6.13,72338.8,-9.97,-45.67,-46.07,0,*54
1484139674.94,27572,6.13,72340.0,-9.97,-45.41,-45.95,0,*5B
1484139676.19,27573,6.06,72342.8,-9.97,-45.27,-45.87,0,*59
1484139677.45,27574,6.13,72340.8,-9.95,-45.87,-46.27,0,*5F
1484139678.7,27575,6.13,72344.5,-9.97,-45.73,-46.15,0,*56
1484139679.94,27576,6.13,72344.3,-9.97,-46.35,-46.69,0,*5F
1484139681.19,27577,6.13,72344.3,-9.97,-45.53,-46.07,0,*55
1484139682.45,27578,6.13,72348.0,-9.97,-45.27,-45.73,0,*59
1484139683.66,27579,6.13,72348.3,-9.97,-45.95,-46.35,0,*50
1484139684.92,27580,6.13,72346.3,-9.99,-45.81,-46.35,0,*5D
1484139686.15,27581,6.13,72346.0,-9.95,-45.21,-45.67,0,*5E
1484139687.41,27582,6.13,72348.8,-9.97,-44.67,-45.07,0,*5A
1484139688.67,27583,6.13,72348.5,-9.95,-44.87,-45.27,0,*55
1484139689.92,27584,6.13,72344.5,-9.95,-44.79,-45.21,0,*55
1484139691.18,27585,6.13,72344.5,-9.95,-45.07,-45.53,0,*59
1484139692.41,27586,6.13,72348.3,-9.95,-45.21,-45.67,0,*59
1484139693.65,27587,6.13,72344.8,-9.95,-44.87,-45.41,0,*51
1484139694.88,27588,6.13,72344.0,-9.95,-45.95,-46.35,0,*5C
1484139696.11,27589,6.13,72344.0,-9.95,-45.67,-45.95,0,*59
1484139697.34,27590,6.13,72344.0,-9.95,-45.53,-45.95,0,*56
1484139698.59,27591,6.13,72344.3,-9.95,-46.35,-46.83,0,*50
1484139699.82,27592,6.13,72346.0,-9.95,-45.95,-46.35,0,*57
1484139701.05,27593,6.13,72344.5,-9.97,-46.35,-47.03,0,*59
1484139702.29,27594,6.13,72342.3,-9.95,-46.35,-46.83,0,*55
1484139703.53,27595,6.13,72340.0,-9.97,-45.95,-46.27,0,*51
1484139704.76,27596,6.13,72344.3,-9.97,-45.95,-46.27,0,*52
1484139706.03,27597,6.13,72342.3,-9.97,-46.27,-46.69,0,*53
1484139707.26,27598,6.13,72344.8,-9.97,-46.55,-47.03,0,*54
1484139708.54,27599,6.13,72344.0,-9.99,-46.41,-46.89,0,*5D
1484139709.77,27600,6.13,72344.0,-9.99,-46.21,-46.55,0,*59
1484139711.03,27601,6.13,72344.8,-9.99,-46.35,-46.61,0,*5A
1484139712.28,27602,6.06,72342.3,-10.01,-46.15,-46.55,0,*65
1484139713.51,27603,6.13,72342.5,-10.01,-46.61,-47.09,0,*6F
1484139714.75,27604,6.13,72344.5,-9.99,-46.01,-46.55,0,*5F
1484139715.97,27605,6.13,72348.3,-10.01,-45.53,-45.95,0,*6C
1484139717.23,27606,6.13,72348.0,-10.05,-45.73,-46.07,0,*61
1484139718.5,27607,6.13,72346.5,-10.01,-46.15,-46.41,0,*65
1484139719.73,27608,6.13,72350.0,-10.01,-45.53,-46.01,0,*6F
1484139720.95,27609,6.13,72344.0,-10.01,-45.61,-45.95,0,*61
1484139722.19,27610,6.13,72342.8,-10.01,-45.61,-46.15,0,*62
1484139723.43,27611,6.13,72342.3,-10.01,-45.33,-45.81,0,*6A
1484139724.68,27612,6.13,72340.8,-9.99,-45.73,-46.21,0,*5D
1484139725.93,27613,6.13,72344.3,-9.99,-45.53,-46.01,0,*5C
1484139727.17,27614,6.13,72344.0,-10.01,-46.01,-46.61,0,*60
1484139728.38,27615,6.13,72344.0,-10.01,-46.75,-47.09,0,*6D
1484139729.63,27616,6.13,72342.8,-10.01,-46.89,-47.31,0,*66
1484139730.84,27617,6.13,72342.8,-10.05,-46.35,-46.75,0,*65
1484139732.11,27618,6.13,72346.8,-10.03,-45.67,-46.07,0,*6D
1484139733.38,27619,6.13,72344.8,-10.03,-45.53,-46.07,0,*6B
1484139734.62,27620,6.13,72346.8,-10.03,-45.67,-46.21,0,*62
1484139735.84,27621,6.13,72344.0,-10.05,-45.87,-46.35,0,*6E
1484139737.07,27622,6.13,72346.3,-10.01,-45.47,-45.95,0,*6C
1484139738.34,27623,6.13,72340.5,-10.01,-45.47,-45.81,0,*68
1484139739.58,27624,6.13,72344.3,-10.01,-45.33,-45.73,0,*61
1484139740.79,27625,6.13,72344.0,-10.01,-45.53,-45.95,0,*6E
1484139742.05,27626,6.13,72344.5,-10.01,-45.27,-45.61,0,*65
1484139743.27,27627,6.13,72346.5,-10.01,-45.53,-45.95,0,*6C
1484139744.49,27628,6.13,72342.5,-10.01,-45.53,-45.95,0,*63
1484139745.74,27629,6.13,72342.3,-9.99,-45.73,-46.21,0,*55
1484139746.96,27630,6.13,72346.8,-10.01,-46.21,-46.75,0,*61
1484139748.2,27631,6.13,72344.5,-10.01,-46.01,-46.61,0,*67
1484139749.48,27632,6.13,72340.0,-10.03,-46.41,-46.69,0,*6A
1484139750.74,27633,6.13,72340.8,-10.03,-45.81,-46.21,0,*68
1484139751.98,27634,6.13,72340.0,-10.03,-45.41,-45.87,0,*6C
1484139753.25,27635,6.13,72342.3,-10.01,-45.27,-45.73,0,*64
1484139754.52,27636,6.13,72342.3,-10.01,-45.47,-45.81,0,*6C
1484139755.78,27637,6.13,72344.3,-10.01,-45.73,-46.15,0,*64
1484139757.01,27638,6.13,72340.3,-10.01,-45.53,-46.01,0,*6C
1484139758.22,27639,6.13,72342.5,-10.01,-45.33,-45.95,0,*65
1484139759.46,27640,6.13,72340.8,-10.01,-45.81,-46.35,0,*6B
1484139760.69,27641,6.13,72346.3,-10.01,-46.21,-46.61,0,*62
1484139761.93,27642,6.13,72346.3,-10.03,-45.67,-46.21,0,*66
1484139763.2,27643,6.13,72342.5,-10.03,-45.67,-46.07,0,*63
1484139764.44,27644,6.13,72344.3,-10.03,-45.41,-45.87,0,*6B
1484139765.66,27645,6.13,72344.3,-10.01,-45.61,-46.01,0,*67
1484139766.9,27646,6.13,72340.5,-10.01,-45.73,-46.21,0,*65
1484139768.14,27647,6.13,72340.3,-10.01,-45.47,-45.95,0,*6F
1484139769.37,27648,6.13,72342.8,-10.01,-45.73,-46.21,0,*6B
1484139770.63,27649,6.13,72344.0,-10.03,-45.87,-46.27,0,*65
1484139771.87,27650,6.13,72340.8,-10.01,-45.81,-46.35,0,*6A
1484139773.12,27651,6.13,72340.0,-10.01,-45.61,-46.15,0,*67
1484139774.33,27652,6.13,72342.5,-10.01,-45.95,-46.21,0,*68
1484139775.57,27653,6.13,72346.8,-10.01,-45.81,-46.21,0,*6C
1484139776.82,27654,6.13,72340.5,-10.01,-46.35,-46.89,0,*65
1484139778.06,27655,6.13,72344.8,-10.01,-46.41,-46.83,0,*6D
1484139779.34,27656,6.13,72342.0,-10.03,-46.41,-46.69,0,*68
1484139780.58,27657,6.13,72344.0,-10.05,-45.87,-46.15,0,*6D
1484139781.85,27658,6.13,72340.0,-10.03,-45.61,-46.07,0,*6F
1484139783.09,27659,6.13,72340.0,-10.03,-45.87,-46.21,0,*62
1484139784.33,27660,6.13,72340.0,-10.03,-45.87,-46.21,0,*68
1484139785.59,27661,6.13,72340.8,-10.03,-45.87,-46.49,0,*67
1484139786.83,27662,6.13,72340.0,-10.05,-46.01,-46.41,0,*67
1484139788.08,27663,6.13,72342.5,-10.03,-45.61,-46.01,0,*61
1484139789.33,27664,6.13,72342.0,-10.03,-45.61,-46.01,0,*66
1484139790.57,27665,6.13,72342.8,-10.01,-45.33,-45.81,0,*69
1484139791.83,27666,6.13,72342.8,-10.03,-45.67,-46.07,0,*64
1484139793.13,27667,6.13,72340.0,-10.03,-46.07,-46.49,0,*6A
1484139794.39,27668,6.13,72342.0,-10.03,-45.67,-46.27,0,*68
1484139795.61,27669,6.13,72342.5,-10.05,-45.61,-45.95,0,*63
1484139796.86,27670,6.13,72338.8,-10.03,-45.53,-46.01,0,*62
1484139798.11,27671,6.13,72338.0,-10.03,-45.61,-46.01,0,*62
1484139799.39,27672,6.13,72338.5,-10.03,-45.81,-46.27,0,*6B
1484139800.63,27673,6.13,72342.5,-10.01,-45.33,-45.81,0,*6E
1484139801.85,27674,6.13,72340.5,-10.01,-45.13,-45.61,0,*65
1484139803.08,27675,6.13,72336.8,-10.01,-45.53,-46.01,0,*65
1484139804.31,27676,6.13,72338.0,-10.01,-45.33,-45.73,0,*66
1484139805.55,27677,6.13,72340.5,-10.01,-45.07,-45.33,0,*64
1484139806.79,27678,6.13,72338.0,-10.01,-45.13,-45.73,0,*6A
1484139808.04,27679,6.13,72338.0,-10.01,-45.61,-46.15,0,*6D
1484139809.32,27680,6.13,72334.8,-9.99,-46.41,-46.89,0,*56
1484139810.58,27681,6.13,72340.3,-10.03,-46.49,-47.09,0,*6D
1484139811.87,27682,6.13,72334.8,-10.03,-46.49,-46.69,0,*69
1484139813.12,27683,6.13,72340.3,-10.03,-46.01,-46.21,0,*68
1484139814.4,27684,6.13,72332.8,-10.03,-46.07,-46.61,0,*6D
1484139815.65,27685,6.13,72336.3,-10.05,-46.15,-46.55,0,*6E
1484139816.89,27686,6.13,72336.0,-10.05,-46.15,-46.55,0,*6D
1484139818.16,27687,6.13,72334.5,-10.03,-46.41,-46.83,0,*60
1484139819.4,27688,6.13,72338.5,-10.05,-45.95,-46.49,0,*65
1484139820.64,27689,6.13,72340.8,-10.05,-45.87,-46.27,0,*6F
1484139821.85,27690,6.13,72338.8,-10.05,-45.41,-45.87,0,*64
1484139823.09,27691,6.13,72338.5,-10.05,-45.27,-45.67,0,*6B
1484139824.36,27692,6.13,72340.3,-10.05,-45.73,-46.15,0,*6F
1484139825.58,27693,6.13,72338.5,-10.05,-45.53,-46.01,0,*69
1484139826.82,27694,6.13,72340.3,-10.05,-45.67,-46.07,0,*6F
1484139828.09,27695,6.13,72338.3,-10.03,-45.67,-46.07,0,*68
1484139829.33,27696,6.13,72336.3,-10.05,-45.87,-46.27,0,*61
1484139830.59,27697,6.13,72336.3,-10.05,-45.73,-46.15,0,*6A
1484139831.83,27698,6.13,72338.3,-10.05,-45.47,-45.95,0,*69
1484139833.06,27699,6.13,72340.5,-10.05,-45.87,-46.49,0,*66
1484139834.31,27700,6.13,72338.5,-10.05,-46.49,-46.75,0,*69
1484139835.55,27701,6.13,72340.0,-10.05,-46.15,-46.55,0,*63
1484139836.81,27702,6.13,72336.8,-10.03,-45.87,-46.41,0,*6B
1484139838.02,27703,6.13,72338.3,-10.05,-45.87,-46.35,0,*6F
1484139839.29,27704,6.13,72332.5,-10.07,-46.07,-46.35,0,*61
1484139840.54,27705,6.13,72338.8,-10.09,-45.87,-46.15,0,*67
1484139841.78,27706,6.13,72340.8,-10.09,-45.87,-46.27,0,*65
1484139843.07,27707,6.13,72342.0,-10.07,-45.47,-46.07,0,*64
1484139844.33,27708,6.13,72336.8,-10.07,-45.41,-45.73,0,*6D
1484139845.6,27709,6.13,72340.5,-10.07,-45.67,-46.15,0,*6B
1484139846.84,27710,6.13,72340.0,-10.05,-45.67,-46.15,0,*61
1484139848.11,27711,6.13,72342.5,-10.07,-45.47,-45.87,0,*68
1484139849.37,27712,6.13,72340.3,-10.07,-45.95,-46.27,0,*6D
1484139850.66,27713,6.13,72342.8,-10.07,-45.73,-46.15,0,*65
1484139851.92,27714,6.13,72338.5,-10.07,-45.41,-45.73,0,*60
1484139853.17,27715,6.13,72342.3,-10.07,-45.21,-45.61,0,*64
1484139854.43,27716,6.13,72340.0,-10.07,-45.21,-45.47,0,*63
1484139855.68,27717,6.13,72344.8,-10.05,-45.27,-45.67,0,*64
1484139856.91,27718,6.13,72340.3,-10.05,-45.87,-46.27,0,*66
1484139858.18,27719,6.13,72342.3,-10.05,-46.07,-46.49,0,*64
1484139859.45,27720,6.13,72342.8,-10.07,-45.87,-46.15,0,*6E
1484139860.68,27721,6.13,72340.5,-10.07,-45.41,-45.67,0,*63
1484139861.93,27722,6.13,72342.5,-10.07,-45.21,-45.61,0,*60
1484139863.18,27723,6.13,72336.0,-10.07,-45.21,-45.61,0,*61
1484139864.42,27724,6.13,72340.3,-10.07,-45.21,-45.61,0,*66
1484139865.69,27725,6.13,72344.3,-10.03,-44.93,-45.41,0,*69
1484139866.91,27726,6.13,72342.0,-10.05,-45.21,-45.67,0,*60
1484139868.14,27727,6.13,72340.0,-10.03,-45.33,-45.53,0,*63
1484139869.39,27728,6.13,72336.5,-10.05,-45.27,-45.61,0,*6E
1484139870.64,27729,6.13,72342.5,-10.05,-45.27,-45.67,0,*69
1484139871.87,27730,6.13,72342.8,-10.03,-45.33,-45.67,0,*62
1484139873.12,27731,6.13,72342.3,-10.03,-45.21,-45.53,0,*67
1484139874.36,27732,6.13,72346.5,-10.03,-44.99,-45.41,0,*65
1484139875.63,27733,6.13,72342.0,-10.03,-45.61,-46.07,0,*63
1484139876.89,27734,6.13,72340.8,-10.03,-45.87,-46.27,0,*6E
1484139878.15,27735,6.13,72342.8,-10.03,-45.33,-45.81,0,*6F
1484139879.39,27736,6.13,72344.0,-10.05,-45.33,-45.81,0,*6A
1484139880.65,27737,6.13,72340.0,-10.03,-45.53,-45.81,0,*6B
1484139881.9,27738,6.13,72338.8,-10.03,-45.21,-45.41,0,*6D
1484139883.14,27739,6.13,72340.0,-10.03,-45.13,-45.61,0,*6F
1484139884.38,27740,6.13,72340.3,-10.03,-45.33,-45.61,0,*63
1484139885.62,27741,6.13,72342.0,-10.03,-44.99,-45.21,0,*67
1484139886.86,27742,6.13,72342.5,-10.03,-44.99,-45.41,0,*62
1484139888.11,27743,6.13,72340.8,-10.03,-45.21,-45.61,0,*63
1484139889.38,27744,6.13,72342.5,-10.03,-44.93,-45.33,0,*6B
1484139890.63,27745,6.13,72340.0,-10.03,-45.21,-45.61,0,*65
1484139891.87,27746,6.13,72342.3,-10.03,-45.21,-45.61,0,*66
1484139893.12,27747,6.13,72336.3,-10.03,-44.79,-45.41,0,*69
1484139894.35,27748,6.13,72338.8,-10.03,-45.33,-45.67,0,*6D
1484139895.61,27749,6.13,72340.3,-10.03,-45.33,-45.81,0,*64
1484139896.85,27750,6.13,72340.0,-10.03,-45.13,-45.61,0,*60
1484139898.12,27751,6.13,72346.0,-9.99,-45.07,-45.53,0,*5E
1484139899.34,27752,6.13,72340.0,-10.01,-45.13,-45.53,0,*61
1484139900.58,27753,6.13,72342.3,-10.01,-45.13,-45.47,0,*65
1484139901.83,27754,6.13,72342.8,-9.99,-45.33,-45.73,0,*5E
1484139903.05,27755,6.13,72342.3,-10.01,-45.53,-45.95,0,*68
1484139904.34,27756,6.13,72340.3,-9.99,-45.27,-45.73,0,*59
1484139905.59,27757,6.13,72342.5,-10.01,-45.27,-45.61,0,*62
1484139906.8,27758,6.13,72340.0,-10.01,-45.33,-45.95,0,*63
1484139908.04,27759,6.13,72340.0,-10.01,-45.33,-45.81,0,*67
1484139909.29,27760,6.13,72340.0,-10.01,-45.53,-45.81,0,*6B
1484139910.52,27761,6.13,72342.5,-10.01,-45.81,-46.21,0,*6C
1484139911.79,27762,6.13,72342.8,-10.03,-45.67,-46.07,0,*61
1484139913.03,27763,6.13,72342.3,-10.03,-45.53,-45.87,0,*6C
1484139914.25,27764,6.13,72340.3,-10.01,-45.53,-45.95,0,*6A
1484139915.49,27765,6.13,72340.5,-10.03,-45.33,-45.87,0,*6C
1484139916.73,27766,6.13,72336.8,-10.03,-45.61,-46.01,0,*65
1484139918.02,27767,6.13,72342.3,-10.03,-45.81,-46.07,0,*6C
1484139919.27,27768,6.13,72342.0,-10.05,-46.49,-46.75,0,*67
1484139920.51,27769,6.13,72340.8,-10.05,-46.07,-46.35,0,*68
1484139921.75,27770,6.13,72340.5,-10.05,-46.35,-46.69,0,*68
1484139922.99,27771,6.13,72340.5,-10.05,-45.87,-46.27,0,*69
1484139924.25,27772,6.13,72338.3,-10.05,-45.73,-46.15,0,*60
1484139925.46,27773,6.13,72340.5,-10.05,-45.95,-46.35,0,*6B
1484139926.73,27774,6.13,72342.5,-10.07,-45.87,-46.15,0,*6F
1484139927.99,27775,6.13,72342.3,-10.07,-45.87,-46.15,0,*6E
1484139929.26,27776,6.13,72340.3,-10.07,-45.87,-46.15,0,*6D
1484139930.53,27777,6.13,72340.5,-10.07,-45.67,-46.07,0,*61
1484139931.77,27778,6.13,72338.3,-10.07,-45.61,-45.95,0,*60
1484139933.04,27779,6.13,72340.0,-10.07,-45.67,-46.15,0,*6C
1484139934.32,27780,6.13,72340.5,-10.07,-45.73,-46.07,0,*6C
1484139935.61,27781,6.13,72340.0,-10.07,-45.73,-46.07,0,*6D
1484139936.88,27782,6.13,72338.8,-10.07,-45.95,-46.27,0,*64
1484139938.13,27783,6.13,72336.8,-10.09,-45.27,-45.67,0,*65
1484139939.4,27784,6.13,72336.5,-10.07,-45.61,-46.07,0,*6B
1484139940.68,27785,6.13,72336.8,-10.07,-45.73,-46.27,0,*6B
1484139941.95,27786,6.13,72338.5,-10.09,-45.73,-46.15,0,*67
1484139943.22,27787,6.13,72342.3,-10.07,-45.21,-45.47,0,*6B
1484139944.46,27788,6.13,72340.3,-10.07,-44.99,-45.41,0,*60
1484139945.73,27789,6.13,72344.0,-10.07,-45.21,-45.47,0,*65
1484139946.96,27790,6.13,72342.8,-10.07,-45.41,-45.67,0,*69
1484139948.22,27791,6.13,72340.5,-10.07,-45.87,-46.27,0,*65
1484139949.49,27792,6.19,72346.0,-10.07,-46.49,-46.97,0,*6C
1484139950.71,27793,6.19,72344.3,-10.09,-46.55,-46.97,0,*6E
1484139951.93,27794,6.13,72340.8,-10.09,-46.55,-46.97,0,*69
1484139953.18,27795,6.13,72340.8,-10.09,-46.27,-46.75,0,*61
1484139954.42,27796,6.13,72340.5,-10.13,-45.67,-46.01,0,*6D
1484139955.66,27797,6.13,72342.0,-10.09,-45.41,-45.73,0,*65
1484139956.91,27798,6.13,72344.8,-10.09,-45.67,-46.07,0,*6E
1484139958.18,27799,6.13,72346.0,-10.09,-46.27,-46.89,0,*6E
1484139959.43,27800,6.13,72340.0,-10.09,-47.17,-47.45,0,*62
1484139960.69,27801,6.13,72340.8,-10.13,-46.75,-47.23,0,*6D
1484139961.95,27802,6.13,72342.8,-10.15,-46.27,-46.61,0,*68
1484139963.19,27803,6.13,72340.8,-10.15,-46.49,-46.83,0,*6D
1484139964.46,27804,6.13,72340.0,-10.19,-46.07,-46.49,0,*6A
1484139965.69,27805,6.13,72342.3,-10.15,-45.73,-46.21,0,*69
1484139966.92,27806,6.13,72342.3,-10.15,-46.21,-46.61,0,*6A
1484139968.15,27807,6.13,72340.8,-10.15,-46.21,-46.61,0,*6B
1484139969.42,27808,6.13,72342.0,-10.19,-47.03,-47.37,0,*6B
1484139970.66,27809,6.13,72340.8,-10.19,-46.01,-46.41,0,*69
1484139971.9,27810,6.13,72340.8,-10.19,-46.01,-46.27,0,*61
1484139973.16,27811,6.13,72344.5,-10.19,-46.41,-46.61,0,*66
1484139974.4,27812,6.13,72340.8,-10.21,-45.95,-46.35,0,*65
1484139975.67,27813,6.13,72344.0,-10.21,-46.49,-46.75,0,*62
1484139976.92,27814,6.13,72344.3,-10.21,-46.35,-46.75,0,*6E
1484139978.16,27815,6.13,72342.8,-10.21,-46.35,-46.75,0,*6F
1484139979.45,27816,6.13,72344.3,-10.21,-45.81,-46.15,0,*66
1484139980.66,27817,6.13,72344.3,-10.23,-45.67,-45.95,0,*66
1484139981.93,27818,6.19,72350.3,-10.21,-45.67,-46.07,0,*63
1484139983.23,27819,6.13,72340.3,-10.21,-46.15,-46.49,0,*6E
1484139984.45,27820,6.13,72344.8,-10.19,-45.53,-46.01,0,*62
1484139985.72,27821,6.13,72344.5,-10.21,-45.47,-45.95,0,*63
1484139987.01,27822,6.13,72344.5,-10.21,-46.49,-46.89,0,*63
1484139988.25,27823,6.13,72344.8,-10.19,-45.61,-46.07,0,*66
1484139989.49,27824,6.13,72346.0,-10.21,-45.41,-45.87,0,*63
1484139990.78,27825,6.13,72346.5,-10.21,-45.47,-46.07,0,*6F
1484139992.0,27826,6.13,72344.5,-10.23,-45.61,-45.95,0,*62
1484139993.24,27827,6.13,72342.5,-10.23,-45.95,-46.27,0,*62
1484139994.53,27828,6.13,72344.0,-10.21,-46.07,-46.49,0,*6F
1484139995.74,27829,6.13,72346.0,-10.23,-45.95,-46.35,0,*6F
1484139996.96,27830,6.19,72344.3,-10.23,-45.61,-45.95,0,*65
1484139998.2,27831,6.13,72342.0,-10.21,-44.99,-45.41,0,*69
1484139999.46,27832,6.19,72344.3,-10.21,-45.07,-45.41,0,*6C
1484140000.69,27833,6.13,72344.0,-10.19,-44.79,-45.21,0,*68
1484140001.91,27834,6.13,72346.8,-10.19,-44.99,-45.41,0,*67
1484140003.13,27835,6.13,72344.5,-10.19,-45.61,-46.01,0,*67
1484140004.37,27836,6.13,72348.0,-10.19,-45.81,-46.21,0,*68
1484140005.63,27837,6.13,72344.5,-10.21,-45.41,-45.73,0,*6A
1484140006.87,27838,6.13,72344.5,-10.19,-44.93,-45.33,0,*64
1484140008.12,27839,6.13,72344.3,-10.19,-44.93,-45.33,0,*65
1484140009.34,27840,6.13,72342.8,-10.19,-44.79,-45.33,0,*6F
1484140010.59,27841,6.13,72346.8,-10.19,-44.93,-45.33,0,*6A
1484140011.8,27842,6.19,72344.3,-10.15,-44.79,-45.13,0,*63
1484140013.01,27843,6.13,72346.5,-10.15,-44.53,-44.99,0,*69
1484140014.24,27844,6.13,72344.3,-10.15,-44.41,-44.73,0,*69
1484140015.45,27845,6.19,72344.8,-10.15,-44.79,-45.13,0,*64
1484140016.73,27846,6.13,72342.3,-10.13,-44.87,-45.27,0,*67
1484140018.02,27847,6.13,72340.5,-10.13,-44.73,-45.07,0,*6F
1484140019.28,27848,6.13,72344.5,-10.13,-44.73,-45.13,0,*65
1484140020.57,27849,6.13,72346.5,-10.13,-45.07,-45.47,0,*67
1484140021.79,27850,6.13,72342.0,-10.09,-45.41,-45.87,0,*6A
1484140023.03,27851,6.19,72344.0,-10.09,-45.41,-45.73,0,*60
1484140024.27,27852,6.13,72344.0,-10.09,-45.41,-45.73,0,*63
1484140025.51,27853,6.13,72342.5,-10.09,-45.21,-45.47,0,*63
1484140026.78,27854,6.13,72340.8,-10.09,-45.47,-45.73,0,*63
1484140028.05,27855,6.13,72342.8,-10.07,-46.07,-46.35,0,*6A
1484140029.31,27856,6.13,72344.0,-10.07,-45.61,-46.07,0,*6B
1484140030.53,27857,6.13,72346.3,-10.09,-45.41,-45.87,0,*6D
1484140031.8,27858,6.13,72346.5,-10.09,-45.47,-46.07,0,*6F
1484140033.07,27859,6.13,72344.8,-10.07,-45.67,-46.07,0,*62
1484140034.32,27860,6.13,72346.8,-10.09,-46.07,-46.35,0,*62
1484140035.56,27861,6.13,72342.3,-10.09,-45.67,-46.07,0,*67
1484140036.81,27862,6.13,72346.3,-10.09,-45.67,-46.07,0,*64
1484140038.06,27863,6.13,72344.3,-10.09,-45.67,-46.07,0,*65
1484140039.3,27864,6.19,72344.8,-10.09,-45.41,-45.73,0,*66
1484140040.57,27865,6.13,72340.8,-10.09,-45.47,-46.07,0,*61
1484140041.85,27866,6.13,72342.0,-10.09,-46.07,-46.49,0,*6F
1484140043.07,27867,6.13,72342.0,-10.09,-45.61,-45.95,0,*6F
1484140044.32,27868,6.19,72344.0,-10.15,-46.49,-47.03,0,*69
1484140045.55,27869,6.13,72344.8,-10.15,-46.69,-47.09,0,*60
1484140046.81,27870,6.19,72346.5,-10.15,-46.49,-47.03,0,*60
1484140048.05,27871,6.13,72340.5,-10.15,-46.61,-46.83,0,*62
1484140049.3,27872,6.13,72340.3,-10.15,-46.69,-47.03,0,*60
1484140050.57,27873,6.19,72346.0,-10.15,-46.89,-47.37,0,*68
1484140051.79,27874,6.19,72344.0,-10.19,-46.35,-46.97,0,*6F
1484140053.05,27875,6.13,72340.0,-10.21,-46.55,-46.89,0,*6C
1484140054.28,27876,6.19,72340.8,-10.21,-46.75,-47.09,0,*64
1484140055.55,27877,6.19,72342.8,-10.21,-46.55,-46.89,0,*6E
1484140056.79,27878,6.19,72340.0,-10.19,-46.21,-46.49,0,*65
1484140058.06,27879,6.13,72340.3,-10.21,-46.07,-46.55,0,*66
1484140059.33,27880,6.13,72340.0,-10.21,-46.07,-46.35,0,*66
1484140060.63,27881,6.13,72340.5,-10.21,-46.15,-46.49,0,*6F
1484140061.84,27882,6.13,72338.8,-10.23,-45.95,-46.35,0,*6E
1484140063.05,27883,6.13,72340.0,-10.23,-45.95,-46.35,0,*6F
1484140064.3,27884,6.13,72340.0,-10.23,-45.61,-46.07,0,*62
1484140065.54,27885,6.13,72338.3,-10.21,-45.61,-45.87,0,*6A
1484140066.76,27886,6.13,72340.3,-10.19,-45.53,-46.01,0,*6E
1484140068.05,27887,6.13,72342.5,-10.21,-45.81,-46.15,0,*6E
1484140069.29,27888,6.13,72338.3,-10.21,-45.21,-45.67,0,*6D
1484140070.53,27889,6.13,72340.8,-10.21,-45.21,-45.67,0,*6C
1484140071.77,27890,6.13,72340.0,-10.19,-45.41,-45.73,0,*6C
1484140072.98,27891,6.13,72342.8,-10.19,-45.41,-45.87,0,*66
1484140074.25,27892,6.13,72342.3,-10.21,-45.67,-46.07,0,*61
1484140075.52,27893,6.13,72342.3,-10.21,-45.67,-46.15,0,*63
1484140076.77,27894,6.13,72340.3,-10.19,-45.53,-46.07,0,*6B
1484140078.04,27895,6.19,72346.8,-10.21,-45.61,-46.07,0,*60
1484140079.28,27896,6.13,72340.5,-10.21,-45.61,-45.95,0,*6B
1484140080.54,27897,6.19,72344.5,-10.21,-45.87,-46.27,0,*68
1484140081.78,27898,6.13,72344.3,-10.21,-45.95,-46.35,0,*67
1484140083.02,27899,6.13,72340.3,-10.21,-45.61,-46.21,0,*68
1484140084.27,27900,6.13,72342.8,-10.19,-45.53,-46.07,0,*67
1484140085.51,27901,6.13,72342.3,-10.19,-45.81,-46.21,0,*6D
1484140086.77,27902,6.13,72342.3,-10.19,-45.81,-46.27,0,*68
1484140087.99,27903,6.13,72340.5,-10.19,-45.53,-45.87,0,*6F
1484140089.23,27904,6.13,72342.8,-10.19,-45.87,-46.27,0,*68
1484140090.5,27905,6.19,72342.0,-10.21,-45.61,-46.15,0,*6B
1484140091.73,27906,6.13,72344.3,-10.19,-45.81,-46.21,0,*6A
1484140092.98,27907,6.13,72340.8,-10.19,-46.01,-46.41,0,*66
1484140094.22,27908,6.19,72346.0,-10.19,-45.87,-46.27,0,*64
1484140095.51,27909,6.13,72340.3,-10.21,-46.07,-46.49,0,*6D
1484140096.76,27910,6.19,72344.3,-10.19,-46.01,-46.27,0,*60
1484140098.03,27911,6.19,72346.5,-10.21,-45.61,-46.15,0,*6E
1484140099.25,27912,6.13,72342.0,-10.19,-45.53,-45.87,0,*6F
1484140100.51,27913,6.19,72344.0,-10.21,-45.87,-46.27,0,*65